sat.trackr.live / text

‹ back to catalog

STARLINK-31496

NORAD 59211 · 2024-046L

PAYLOAD ACTIVE UNKNOWN

§ Identity

Operator
Country
US
Launch date
2024-03-11
Launch site
AFWTR
Launch vehicle
Mass (kg)
RCS (m²)

Purposes: comms

External: N2YO · Heavens-Above · Gunter

§ Orbital elements

Epoch: 2026-09-20T11:13:07.400064Z

Period
93.85 min
Inclination
53.1617°
Eccentricity
0.0000992
Mean motion
15.34388393 rev/d
Perigee alt
462.1 km
Apogee alt
463.4 km
Semi-major
6,840.9 km
B*
4.8301e-6
RAAN
315.5180°
Arg perigee
77.2432°
Mean anomaly
282.8682°
Rev number
14,307

§ Raw data

STARLINK-314961 59211U 24046L   26263.46744676 -.00000213  00000+0  48301-5 0  99942 59211  53.1617 315.5180 0000992  77.2432 282.8682 15.34388393143079

JSON: /api/v1/satellites/59211 · /tle

For live sub-satellite position, see the globe view (requires WebGL).

§ Visibility from observer

Set your observer location to see the next 7 days of passes ≥ 10°. The values pass through the URL so the page stays shareable.

No JS? Fill the form by hand. The geolocation button needs JavaScript.